Location: Grange Verzio
(44.5000°N, 6.9833°E)
Time: 13:05:11
(UTC+00:00)

BREEZE-M DEB (TANK) - Pass Details

Date: 01 February 2023
Orbit: 427 x 13836 km, 45.9° (Epoch: 25 March)

Event Time Altitude Azimuth Distance (km) Brightness Sun altitude
Rises 17:24:29 0° 267° (W) 2,385 7.5 -8.2°
Reaches altitude 10° 17:26:06 10° 269° (W) 1,586 6.1 -8.5°
Maximum altitude 17:29:04 75° 356° (N) 627 2.6 -9.0°
Enters shadow 17:34:47 12° 82° (E) 3,017 5.4 -10.0°
